Location: Eferding
(48.3167°N, 14.0167°E)
Time: 03:49:22
(UTC+00:00)

PSLV R/B - Visible Passes

Search period start: 28 February 2020 00:00
Search period end: 09 March 2020 00:00
Orbit: 568 x 598 km, 98.2° (Epoch: 27 February)

Date Brightness Start Highest point End Pass type
(mag) Time Alt. Az. Time Alt. Az. Time Alt. Az.
28 Feb 6.1 02:38:17 23° NNE 02:38:17 23° NNE 02:40:31 10° N visible
28 Feb 5.7 04:14:38 18° NW 04:14:38 18° NW 04:15:55 10° NNW visible
28 Feb 5.9 17:21:27 10° N 17:25:14 33° WNW 17:29:00 10° SW visible
29 Feb 5.7 02:43:22 31° NE 02:43:22 31° NE 02:46:34 10° N visible
29 Feb 5.3 04:19:41 22° WNW 04:19:41 22° WNW 04:21:47 10° NW visible
29 Feb 6.2 17:27:30 10° N 17:31:10 29° WNW 17:34:48 10° SW visible
01 Mar 5.4 02:48:07 34° E 02:48:48 36° ENE 02:52:38 10° N visible
01 Mar 5.0 04:24:24 24° W 04:24:24 24° W 04:27:38 10° NW visible
01 Mar 6.4 17:33:34 10° N 17:37:05 26° WNW 17:40:35 10° WSW visible
02 Mar 5.1 02:50:51 10° SE 02:54:44 41° ENE 02:58:40 10° N visible
02 Mar 5.1 04:27:07 10° SW 04:30:15 21° W 04:33:27 10° NW visible
02 Mar 6.6 17:39:40 10° N 17:43:01 23° WNW 17:46:21 10° WSW visible
03 Mar 4.9 02:56:43 10° SE 03:00:40 47° ENE 03:04:42 10° N visible
03 Mar 5.3 04:33:22 10° SW 04:36:17 18° W 04:39:14 10° NW visible
03 Mar 6.8 17:45:46 10° NNW 17:48:56 21° WNW 17:52:05 10° WSW visible
04 Mar 4.6 03:02:36 10° SSE 03:06:37 54° ENE 03:10:43 10° N visible
04 Mar 5.4 04:39:40 10° SW 04:42:18 16° W 04:44:58 10° NW visible
04 Mar 6.9 17:51:54 10° NNW 17:54:51 19° WNW 17:57:46 10° WSW visible
05 Mar 4.4 03:08:30 10° SSE 03:12:34 62° ENE 03:16:43 10° N visible
05 Mar 5.6 04:46:04 10° WSW 04:48:20 14° W 04:50:39 10° NW visible
05 Mar 7.0 17:58:03 10° NNW 18:00:45 17° WNW 18:03:26 10° W visible
06 Mar 4.1 03:14:25 10° SSE 03:18:32 72° ENE 03:22:43 10° N visible
06 Mar 5.7 04:52:34 10° WSW 04:54:23 13° W 04:56:13 10° WNW visible
06 Mar 7.0 18:04:15 10° NNW 18:06:40 15° WNW 18:09:03 10° W visible
07 Mar 7.3 01:48:45 10° ENE 01:49:52 11° NE 01:51:00 10° NE visible
07 Mar 3.9 03:20:21 10° SSE 03:24:29 82° ENE 03:28:42 10° NNW visible
07 Mar 5.8 04:59:17 10° WSW 05:00:25 11° W 05:01:34 10° WNW visible
07 Mar 7.1 18:10:30 10° NNW 18:12:33 13° WNW 18:14:35 10° W visible
08 Mar 7.2 01:54:02 10° E 01:55:45 12° ENE 01:57:29 10° NNE visible
08 Mar 3.8 03:26:18 10° SSE 03:30:27 87° WSW 03:34:41 10° NNW visible
08 Mar 7.2 18:16:51 10° NW 18:18:26 12° WNW 18:20:01 10° W visible
